Time,TemperatureF,DewpointF,PressureIn,WindDirection,WindDirectionDegrees,WindSpeedMPH,WindSpeedGustMPH,Humidity,HourlyPrecipIn,Conditions,Clouds,dailyrainin,SoftwareType,DateUTC
2013-06-26 00:02:00,73.0,73.0,29.35,North,0,0.0,-999.0,100,-99.99,,,-99.99,,2013-06-26 05:02:00,
2013-06-26 00:11:00,73.0,73.0,29.35,North,0,0.0,-999.0,100,-99.99,,,-99.99,,2013-06-26 05:11:00,
2013-06-26 00:22:00,73.0,73.0,29.35,North,0,0.0,-999.0,100,-99.99,,,-99.99,,2013-06-26 05:22:00,
2013-06-26 00:34:00,73.0,73.0,29.35,North,0,0.0,-999.0,100,-99.99,,,-99.99,,2013-06-26 05:34:00,
2013-06-26 00:43:00,73.0,73.0,29.35,North,0,0.0,-999.0,100,-99.99,,,-99.99,,2013-06-26 05:43:00,
2013-06-26 00:52:00,73.0,73.0,29.35,North,0,0.0,-999.0,100,-99.99,,,-99.99,,2013-06-26 05:52:00,
2013-06-26 01:01:00,73.0,73.0,29.35,North,0,0.0,-999.0,100,-99.99,,,-99.99,,2013-06-26 06:01:00,
2013-06-26 01:11:00,73.0,73.0,29.35,North,0,0.0,-999.0,100,-99.99,,,-99.99,,2013-06-26 06:11:00,
2013-06-26 01:22:00,73.0,73.0,29.35,North,0,0.0,-999.0,100,-99.99,,,-99.99,,2013-06-26 06:22:00,
2013-06-26 01:34:00,73.0,73.0,29.35,North,0,0.0,-999.0,100,-99.99,,,-99.99,,2013-06-26 06:34:00,
2013-06-26 01:43:00,73.0,73.0,29.35,North,0,0.0,-999.0,100,-99.99,,,-99.99,,2013-06-26 06:43:00,
2013-06-26 01:53:00,73.0,72.0,29.35,North,0,0.0,-999.0,94,-99.99,,,-99.99,,2013-06-26 06:53:00,
2013-06-26 02:01:00,73.0,72.0,29.35,North,0,0.0,-999.0,94,-99.99,,,-99.99,,2013-06-26 07:01:00,
2013-06-26 02:11:00,73.0,72.0,29.34,North,0,0.0,-999.0,94,-99.99,,,-99.99,,2013-06-26 07:11:00,
2013-06-26 02:22:00,73.0,72.0,29.34,North,0,0.0,-999.0,94,-99.99,,,-99.99,,2013-06-26 07:22:00,
2013-06-26 02:33:00,73.0,72.0,29.34,North,0,0.0,-999.0,94,-99.99,,,-99.99,,2013-06-26 07:33:00,
2013-06-26 02:43:00,73.0,72.0,29.34,North,0,0.0,-999.0,94,-99.99,,,-99.99,,2013-06-26 07:43:00,
2013-06-26 02:53:00,73.0,72.0,29.34,North,0,0.0,-999.0,94,-99.99,,,-99.99,,2013-06-26 07:53:00,
2013-06-26 03:01:00,73.0,72.0,29.34,North,0,0.0,-999.0,94,-99.99,,,-99.99,,2013-06-26 08:01:00,
2013-06-26 03:11:00,73.0,72.0,29.34,North,0,0.0,-999.0,94,-99.99,,,-99.99,,2013-06-26 08:11:00,
2013-06-26 03:22:00,73.0,72.0,29.34,North,0,0.0,-999.0,94,-99.99,,,-99.99,,2013-06-26 08:22:00,
2013-06-26 03:33:00,73.0,73.0,29.34,North,0,0.0,-999.0,100,-99.99,,,-99.99,,2013-06-26 08:33:00,
2013-06-26 03:42:00,73.0,73.0,29.34,SE,135,6.0,-999.0,100,-99.99,,,-99.99,,2013-06-26 08:42:00,
2013-06-26 03:52:00,73.0,73.0,29.34,SSE,154,7.0,-999.0,100,-99.99,,,-99.99,,2013-06-26 08:52:00,
2013-06-26 04:01:00,73.0,73.0,29.35,East,90,5.0,-999.0,100,-99.99,,,-99.99,,2013-06-26 09:01:00,
2013-06-26 04:11:00,73.0,73.0,29.35,ESE,115,8.0,-999.0,100,-99.99,,,-99.99,,2013-06-26 09:11:00,
2013-06-26 04:22:00,73.0,72.0,29.35,SSE,154,7.0,-999.0,94,-99.99,,,-99.99,,2013-06-26 09:22:00,
2013-06-26 04:32:00,73.0,72.0,29.34,SE,135,8.0,-999.0,94,-99.99,,,-99.99,,2013-06-26 09:32:00,
2013-06-26 04:43:00,73.0,72.0,29.35,SE,135,9.0,-999.0,94,-99.99,,,-99.99,,2013-06-26 09:43:00,
2013-06-26 04:53:00,73.0,72.0,29.35,ESE,114,6.0,-999.0,94,-99.99,,,-99.99,,2013-06-26 09:53:00,
2013-06-26 05:01:00,72.0,72.0,29.36,SSE,154,8.0,-999.0,100,-99.99,,,-99.99,,2013-06-26 10:01:00,
2013-06-26 05:12:00,72.0,72.0,29.37,SE,135,5.0,-999.0,100,-99.99,,,-99.99,,2013-06-26 10:12:00,
2013-06-26 05:22:00,72.0,72.0,29.37,North,0,6.0,-999.0,100,-99.99,,,-99.99,,2013-06-26 10:22:00,
2013-06-26 05:34:00,72.0,72.0,29.37,SSE,155,9.0,-999.0,100,-99.99,,,-99.99,,2013-06-26 10:34:00,
2013-06-26 05:43:00,72.0,72.0,29.38,SE,135,8.0,-999.0,100,-99.99,,,-99.99,,2013-06-26 10:43:00,
2013-06-26 05:53:00,72.0,72.0,29.38,ESE,115,7.0,-999.0,100,-99.99,,,-99.99,,2013-06-26 10:53:00,
2013-06-26 06:02:00,72.0,72.0,29.39,SE,135,13.0,-999.0,100,-99.99,,,-99.99,,2013-06-26 11:02:00,
2013-06-26 06:11:00,70.0,70.0,29.39,SE,135,9.0,-999.0,100,-99.99,,,-99.99,,2013-06-26 11:11:00,
2013-06-26 06:22:00,70.0,70.0,29.39,North,0,10.0,-999.0,100,-99.99,,,-99.99,,2013-06-26 11:22:00,
2013-06-26 06:32:00,70.0,70.0,29.40,SSE,155,10.0,-999.0,100,-99.99,,,-99.99,,2013-06-26 11:32:00,
2013-06-26 06:44:00,70.0,70.0,29.41,SSE,155,10.0,-999.0,100,-99.99,,,-99.99,,2013-06-26 11:44:00,
2013-06-26 06:52:00,70.0,70.0,29.41,SSE,154,12.0,-999.0,100,-99.99,,,-99.99,,2013-06-26 11:52:00,
2013-06-26 07:02:00,70.0,70.0,29.41,SSE,155,10.0,-999.0,100,-99.99,,,-99.99,,2013-06-26 12:02:00,
2013-06-26 07:12:00,70.0,70.0,29.42,SSE,154,12.0,-999.0,100,-99.99,,,-99.99,,2013-06-26 12:12:00,
2013-06-26 07:22:00,70.0,70.0,29.42,ESE,114,10.0,-999.0,100,-99.99,,,-99.99,,2013-06-26 12:22:00,
2013-06-26 07:33:00,70.0,70.0,29.43,SSE,154,8.0,-999.0,100,-99.99,,,-99.99,,2013-06-26 12:33:00,
2013-06-26 07:42:00,72.0,72.0,29.43,SSE,154,12.0,-999.0,100,-99.99,,,-99.99,,2013-06-26 12:42:00,
2013-06-26 07:52:00,72.0,72.0,29.44,North,0,9.0,-999.0,100,-99.99,,,-99.99,,2013-06-26 12:52:00,
2013-06-26 08:02:00,72.0,72.0,29.44,SSE,154,12.0,-999.0,100,-99.99,,,-99.99,,2013-06-26 13:02:00,
2013-06-26 08:11:00,72.0,72.0,29.44,SE,135,8.0,-999.0,100,-99.99,,,-99.99,,2013-06-26 13:11:00,
2013-06-26 08:22:00,72.0,72.0,29.43,North,0,6.0,-999.0,100,-99.99,,,-99.99,,2013-06-26 13:22:00,
2013-06-26 08:34:00,72.0,72.0,29.44,SSE,154,8.0,-999.0,100,-99.99,,,-99.99,,2013-06-26 13:34:00,
2013-06-26 08:42:00,73.0,72.0,29.44,SSE,155,9.0,-999.0,94,-99.99,,,-99.99,,2013-06-26 13:42:00,
2013-06-26 08:53:00,73.0,72.0,29.44,North,0,10.0,-999.0,94,-99.99,,,-99.99,,2013-06-26 13:53:00,
2013-06-26 09:23:00,75.0,72.0,29.45,North,0,6.0,-999.0,88,-99.99,,,-99.99,,2013-06-26 14:23:00,
2013-06-26 09:34:00,75.0,72.0,29.46,SE,135,14.0,-999.0,88,-99.99,,,-99.99,,2013-06-26 14:34:00,
2013-06-26 09:42:00,75.0,72.0,29.46,SSE,154,13.0,-999.0,88,-99.99,,,-99.99,,2013-06-26 14:42:00,
2013-06-26 09:52:00,75.0,72.0,29.46,SSE,155,10.0,-999.0,88,-99.99,,,-99.99,,2013-06-26 14:52:00,
2013-06-26 10:02:00,75.0,72.0,29.47,SSE,154,7.0,-999.0,88,-99.99,,,-99.99,,2013-06-26 15:02:00,
2013-06-26 10:11:00,75.0,70.0,29.47,SE,135,14.0,-999.0,83,-99.99,,,-99.99,,2013-06-26 15:11:00,
2013-06-26 10:34:00,77.0,72.0,29.47,SE,135,12.0,-999.0,83,-99.99,,,-99.99,,2013-06-26 15:34:00,
2013-06-26 10:44:00,77.0,70.0,29.48,East,90,12.0,-999.0,78,-99.99,,,-99.99,,2013-06-26 15:44:00,
2013-06-26 10:53:00,79.0,72.0,29.48,SE,135,7.0,-999.0,78,-99.99,,,-99.99,,2013-06-26 15:53:00,
2013-06-26 11:01:00,79.0,70.0,29.48,SSE,155,9.0,-999.0,73,-99.99,,,-99.99,,2013-06-26 16:01:00,
2013-06-26 11:11:00,79.0,70.0,29.48,SSE,154,12.0,-999.0,73,-99.99,,,-99.99,,2013-06-26 16:11:00,
2013-06-26 11:34:00,79.0,68.0,29.49,ESE,115,12.0,-999.0,69,-99.99,,,-99.99,,2013-06-26 16:34:00,
2013-06-26 11:43:00,81.0,68.0,29.49,SSE,154,8.0,-999.0,65,-99.99,,,-99.99,,2013-06-26 16:43:00,
2013-06-26 11:52:00,81.0,66.0,29.49,SSE,154,12.0,-999.0,61,-99.99,,,-99.99,,2013-06-26 16:52:00,
2013-06-26 12:01:00,81.0,66.0,29.50,SE,135,12.0,-999.0,61,-99.99,,,-99.99,,2013-06-26 17:01:00,
2013-06-26 12:11:00,81.0,66.0,29.51,SE,135,9.0,-999.0,61,-99.99,,,-99.99,,2013-06-26 17:11:00,
2013-06-26 12:23:00,82.0,64.0,29.51,SE,135,13.0,-999.0,54,-99.99,,,-99.99,,2013-06-26 17:23:00,
2013-06-26 12:33:00,82.0,66.0,29.51,ESE,115,12.0,-999.0,58,-99.99,,,-99.99,,2013-06-26 17:33:00,
2013-06-26 12:43:00,81.0,64.0,29.51,SE,135,7.0,-999.0,57,-99.99,,,-99.99,,2013-06-26 17:43:00,
2013-06-26 12:52:00,82.0,66.0,29.52,ESE,114,10.0,-999.0,58,-99.99,,,-99.99,,2013-06-26 17:52:00,
2013-06-26 13:01:00,82.0,64.0,29.52,SSE,155,10.0,-999.0,54,-99.99,,,-99.99,,2013-06-26 18:01:00,
2013-06-26 13:11:00,82.0,64.0,29.52,SSE,154,12.0,-999.0,54,-99.99,,,-99.99,,2013-06-26 18:11:00,
2013-06-26 13:22:00,82.0,64.0,29.52,SE,135,9.0,-999.0,54,-99.99,,,-99.99,,2013-06-26 18:22:00,
2013-06-26 13:34:00,82.0,63.0,29.52,East,90,10.0,-999.0,51,-99.99,,,-99.99,,2013-06-26 18:34:00,
2013-06-26 13:43:00,82.0,64.0,29.52,SE,135,9.0,-999.0,54,-99.99,,,-99.99,,2013-06-26 18:43:00,
2013-06-26 13:52:00,84.0,63.0,29.52,SE,135,13.0,-999.0,48,-99.99,,,-99.99,,2013-06-26 18:52:00,
2013-06-26 14:01:00,84.0,63.0,29.52,ESE,115,7.0,-999.0,48,-99.99,,,-99.99,,2013-06-26 19:01:00,
2013-06-26 14:22:00,84.0,63.0,29.52,ESE,115,12.0,-999.0,48,-99.99,,,-99.99,,2013-06-26 19:22:00,
2013-06-26 16:11:00,86.0,61.0,29.51,North,0,7.0,-999.0,42,-99.99,,,-99.99,,2013-06-26 21:11:00,
2013-06-26 16:23:00,88.0,61.0,29.51,North,0,8.0,-999.0,40,-99.99,,,-99.99,,2013-06-26 21:23:00,
2013-06-26 17:11:00,88.0,61.0,29.51,SSE,155,5.0,-999.0,40,-99.99,,,-99.99,,2013-06-26 22:11:00,
2013-06-26 18:11:00,88.0,59.0,29.49,SE,135,6.0,-999.0,37,-99.99,,,-99.99,,2013-06-26 23:11:00,
2013-06-26 18:22:00,88.0,59.0,29.49,SSE,155,6.0,-999.0,37,-99.99,,,-99.99,,2013-06-26 23:22:00,
2013-06-26 18:34:00,88.0,61.0,29.49,SSE,154,8.0,-999.0,40,-99.99,,,-99.99,,2013-06-26 23:34:00,
2013-06-26 19:22:00,88.0,61.0,29.49,ESE,115,7.0,-999.0,40,-99.99,,,-99.99,,2013-06-27 00:22:00,
2013-06-26 19:33:00,88.0,61.0,29.49,SSE,154,8.0,-999.0,40,-99.99,,,-99.99,,2013-06-27 00:33:00,
2013-06-26 19:42:00,88.0,61.0,29.50,SE,135,3.0,-999.0,40,-99.99,,,-99.99,,2013-06-27 00:42:00,
2013-06-26 19:53:00,86.0,63.0,29.50,North,0,0.0,-999.0,45,-99.99,,,-99.99,,2013-06-27 00:53:00,
2013-06-26 20:11:00,84.0,63.0,29.50,North,0,0.0,-999.0,48,-99.99,,,-99.99,,2013-06-27 01:11:00,
2013-06-26 20:21:00,84.0,63.0,29.49,North,0,0.0,-999.0,48,-99.99,,,-99.99,,2013-06-27 01:21:00,
2013-06-26 20:32:00,84.0,63.0,29.49,North,0,0.0,-999.0,48,-99.99,,,-99.99,,2013-06-27 01:32:00,
2013-06-26 20:42:00,84.0,66.0,29.49,North,0,0.0,-999.0,54,-99.99,,,-99.99,,2013-06-27 01:42:00,
2013-06-26 20:52:00,84.0,64.0,29.51,North,0,0.0,-999.0,51,-99.99,,,-99.99,,2013-06-27 01:52:00,
2013-06-26 21:01:00,84.0,64.0,29.51,North,0,0.0,-999.0,51,-99.99,,,-99.99,,2013-06-27 02:01:00,
2013-06-26 21:11:00,84.0,64.0,29.51,North,0,0.0,-999.0,51,-99.99,,,-99.99,,2013-06-27 02:11:00,
2013-06-26 21:22:00,84.0,63.0,29.51,North,0,0.0,-999.0,48,-99.99,,,-99.99,,2013-06-27 02:22:00,
2013-06-26 21:32:00,84.0,63.0,29.51,North,0,0.0,-999.0,48,-99.99,,,-99.99,,2013-06-27 02:32:00,
2013-06-26 21:42:00,82.0,64.0,29.51,North,0,0.0,-999.0,54,-99.99,,,-99.99,,2013-06-27 02:42:00,
2013-06-26 21:52:00,81.0,66.0,29.52,North,0,0.0,-999.0,61,-99.99,,,-99.99,,2013-06-27 02:52:00,
2013-06-26 22:02:00,81.0,64.0,29.52,North,0,0.0,-999.0,57,-99.99,,,-99.99,,2013-06-27 03:02:00,
2013-06-26 22:11:00,81.0,66.0,29.52,North,0,0.0,-999.0,61,-99.99,,,-99.99,,2013-06-27 03:11:00,
2013-06-26 22:21:00,81.0,64.0,29.52,North,0,0.0,-999.0,57,-99.99,,,-99.99,,2013-06-27 03:21:00,
2013-06-26 22:32:00,79.0,64.0,29.52,North,0,0.0,-999.0,61,-99.99,,,-99.99,,2013-06-27 03:32:00,
2013-06-26 22:42:00,79.0,68.0,29.52,North,0,0.0,-999.0,69,-99.99,,,-99.99,,2013-06-27 03:42:00,
2013-06-26 22:52:00,77.0,66.0,29.52,North,0,0.0,-999.0,69,-99.99,,,-99.99,,2013-06-27 03:52:00,
2013-06-26 23:01:00,75.0,68.0,29.52,North,0,0.0,-999.0,78,-99.99,,,-99.99,,2013-06-27 04:01:00,
2013-06-26 23:11:00,75.0,68.0,29.52,North,0,0.0,-999.0,78,-99.99,,,-99.99,,2013-06-27 04:11:00,
2013-06-26 23:22:00,75.0,68.0,29.53,North,0,0.0,-999.0,78,-99.99,,,-99.99,,2013-06-27 04:22:00,
2013-06-26 23:32:00,75.0,68.0,29.53,North,0,0.0,-999.0,78,-99.99,,,-99.99,,2013-06-27 04:32:00,
2013-06-26 23:42:00,75.0,70.0,29.53,North,0,0.0,-999.0,83,-99.99,,,-99.99,,2013-06-27 04:42:00,
2013-06-26 23:52:00,73.0,68.0,29.53,North,0,0.0,-999.0,83,-99.99,,,-99.99,,2013-06-27 04:52:00,